Time,TemperatureF,DewpointF,PressureIn,WindDirection,WindDirectionDegrees,WindSpeedMPH,WindSpeedGustMPH,Humidity,HourlyPrecipIn,Conditions,Clouds,dailyrainin,SoftwareType,DateUTC
2013-05-13 00:02:00,49.0,40.0,30.22,WSW,256,0.0,0.0,71,0.00,,,0.00,,2013-05-13 05:02:00,
2013-05-13 00:12:00,49.0,40.0,30.22,WSW,256,0.0,0.0,71,0.00,,,0.00,,2013-05-13 05:12:00,
2013-05-13 00:21:00,49.0,41.0,30.22,WSW,256,0.0,0.0,73,0.00,,,0.00,,2013-05-13 05:21:00,
2013-05-13 00:32:00,48.0,40.0,30.22,WSW,256,0.0,0.0,74,0.00,,,0.00,,2013-05-13 05:32:00,
2013-05-13 00:42:00,48.0,40.0,30.22,WSW,256,0.0,0.0,74,0.00,,,0.00,,2013-05-13 05:42:00,
2013-05-13 00:52:00,48.0,40.0,30.22,WSW,256,0.0,0.0,75,0.00,,,0.00,,2013-05-13 05:52:00,
2013-05-13 01:01:00,48.0,41.0,30.22,WSW,256,0.0,0.0,76,0.00,,,0.00,,2013-05-13 06:01:00,
2013-05-13 01:11:00,48.0,41.0,30.22,WSW,256,0.0,0.0,76,0.00,,,0.00,,2013-05-13 06:11:00,
2013-05-13 01:21:00,47.0,40.0,30.22,WSW,256,0.0,0.0,77,0.00,,,0.00,,2013-05-13 06:21:00,
2013-05-13 01:31:00,47.0,41.0,30.21,WSW,256,0.0,0.0,79,0.00,,,0.00,,2013-05-13 06:31:00,
2013-05-13 01:42:00,47.0,41.0,30.21,WSW,256,0.0,0.0,79,0.00,,,0.00,,2013-05-13 06:42:00,
2013-05-13 01:52:00,47.0,41.0,30.21,WSW,256,0.0,0.0,79,0.00,,,0.00,,2013-05-13 06:52:00,
2013-05-13 02:01:00,47.0,41.0,30.21,WSW,256,0.0,0.0,79,0.00,,,0.00,,2013-05-13 07:01:00,
2013-05-13 02:11:00,47.0,41.0,30.21,WSW,256,0.0,0.0,79,0.00,,,0.00,,2013-05-13 07:11:00,
2013-05-13 02:22:00,46.0,40.0,30.21,WSW,256,0.0,0.0,80,0.00,,,0.00,,2013-05-13 07:22:00,
2013-05-13 02:31:00,46.0,40.0,30.20,WSW,256,0.0,0.0,80,0.00,,,0.00,,2013-05-13 07:31:00,
2013-05-13 02:41:00,46.0,40.0,30.20,WSW,256,0.0,0.0,80,0.00,,,0.00,,2013-05-13 07:41:00,
2013-05-13 02:52:00,46.0,40.0,30.20,WSW,256,0.0,0.0,80,0.00,,,0.00,,2013-05-13 07:52:00,
2013-05-13 03:02:00,46.0,41.0,30.20,WSW,256,0.0,0.0,81,0.00,,,0.00,,2013-05-13 08:02:00,
2013-05-13 03:11:00,46.0,41.0,30.20,WSW,256,0.0,0.0,81,0.00,,,0.00,,2013-05-13 08:11:00,
2013-05-13 03:21:00,46.0,41.0,30.20,WSW,256,0.0,0.0,81,0.00,,,0.00,,2013-05-13 08:21:00,
2013-05-13 03:31:00,45.0,40.0,30.21,WSW,256,0.0,0.0,81,0.00,,,0.00,,2013-05-13 08:31:00,
2013-05-13 03:42:00,45.0,40.0,30.21,WSW,256,0.0,0.0,81,0.00,,,0.00,,2013-05-13 08:42:00,
2013-05-13 03:51:00,45.0,40.0,30.19,WSW,256,0.0,0.0,81,0.00,,,0.00,,2013-05-13 08:51:00,
2013-05-13 04:01:00,46.0,40.0,30.19,WSW,256,0.0,0.0,80,0.00,,,0.00,,2013-05-13 09:01:00,
2013-05-13 04:11:00,46.0,40.0,30.19,WSW,256,0.0,0.0,80,0.00,,,0.00,,2013-05-13 09:11:00,
2013-05-13 04:21:00,47.0,41.0,30.19,WSW,256,0.0,1.0,78,0.00,,,0.00,,2013-05-13 09:21:00,
2013-05-13 04:33:00,47.0,41.0,30.19,WSW,256,0.0,0.0,78,0.00,,,0.00,,2013-05-13 09:33:00,
2013-05-13 04:42:00,47.0,41.0,30.19,WSW,256,0.0,0.0,78,0.00,,,0.00,,2013-05-13 09:42:00,
2013-05-13 04:52:00,47.0,40.0,30.19,WSW,256,0.0,1.0,77,0.00,,,0.00,,2013-05-13 09:52:00,
2013-05-13 05:03:00,47.0,40.0,30.19,WSW,256,0.0,0.0,76,0.00,,,0.00,,2013-05-13 10:03:00,
2013-05-13 05:12:00,47.0,40.0,30.19,WSW,256,0.0,0.0,76,0.00,,,0.00,,2013-05-13 10:12:00,
2013-05-13 05:22:00,47.0,39.0,30.19,WSW,256,0.0,1.0,75,0.00,,,0.00,,2013-05-13 10:22:00,
2013-05-13 05:32:00,47.0,39.0,30.19,WSW,256,0.0,0.0,75,0.00,,,0.00,,2013-05-13 10:32:00,
2013-05-13 05:42:00,47.0,39.0,30.19,WSW,256,0.0,0.0,75,0.00,,,0.00,,2013-05-13 10:42:00,
2013-05-13 05:52:00,48.0,40.0,30.18,WSW,256,0.0,0.0,74,0.00,,,0.00,,2013-05-13 10:52:00,
2013-05-13 06:02:00,48.0,40.0,30.19,WSW,256,0.0,1.0,74,0.00,,,0.00,,2013-05-13 11:02:00,
2013-05-13 06:12:00,48.0,40.0,30.19,WSW,256,0.0,1.0,74,0.00,,,0.00,,2013-05-13 11:12:00,
2013-05-13 06:21:00,48.0,40.0,30.19,SSE,165,0.0,3.0,73,0.00,,,0.00,,2013-05-13 11:21:00,
2013-05-13 06:32:00,48.0,39.0,30.19,SSE,163,0.0,3.0,72,0.00,,,0.00,,2013-05-13 11:32:00,
2013-05-13 06:42:00,48.0,39.0,30.19,SSE,163,0.0,3.0,72,0.00,,,0.00,,2013-05-13 11:42:00,
2013-05-13 06:52:00,49.0,40.0,30.18,SE,133,2.0,5.0,71,0.00,,,0.00,,2013-05-13 11:52:00,
2013-05-13 07:01:00,49.0,40.0,30.19,SE,126,0.0,8.0,70,0.00,,,0.00,,2013-05-13 12:01:00,
2013-05-13 07:11:00,49.0,40.0,30.19,SE,126,0.0,8.0,70,0.00,,,0.00,,2013-05-13 12:11:00,
2013-05-13 07:21:00,49.0,39.0,30.19,SE,126,0.0,4.0,69,0.00,,,0.00,,2013-05-13 12:21:00,
2013-05-13 07:32:00,50.0,41.0,30.19,ESE,117,1.0,7.0,70,0.00,,,0.00,,2013-05-13 12:32:00,
2013-05-13 07:42:00,50.0,41.0,30.19,ESE,117,1.0,7.0,70,0.00,,,0.00,,2013-05-13 12:42:00,
2013-05-13 07:51:00,51.0,41.0,30.18,East,99,2.0,7.0,68,0.00,,,0.00,,2013-05-13 12:51:00,
2013-05-13 08:01:00,52.0,41.0,30.18,ESE,112,1.0,7.0,65,0.00,,,0.00,,2013-05-13 13:01:00,
2013-05-13 08:11:00,52.0,41.0,30.18,ESE,112,1.0,7.0,65,0.00,,,0.00,,2013-05-13 13:11:00,
2013-05-13 08:21:00,53.0,42.0,30.18,ESE,114,1.0,7.0,65,0.00,,,0.00,,2013-05-13 13:21:00,
2013-05-13 08:31:00,54.0,42.0,30.18,ESE,119,2.0,7.0,63,0.00,,,0.00,,2013-05-13 13:31:00,
2013-05-13 08:41:00,55.0,42.0,30.19,ESE,114,1.0,7.0,61,0.00,,,0.00,,2013-05-13 13:41:00,
2013-05-13 08:52:00,55.0,42.0,30.19,ESE,114,1.0,7.0,61,0.00,,,0.00,,2013-05-13 13:52:00,
2013-05-13 09:02:00,56.0,42.0,30.19,SSE,159,1.0,10.0,59,0.00,,,0.00,,2013-05-13 14:02:00,
2013-05-13 09:11:00,56.0,42.0,30.19,SSE,159,1.0,10.0,59,0.00,,,0.00,,2013-05-13 14:11:00,
2013-05-13 09:22:00,58.0,43.0,30.18,ESE,117,1.0,7.0,57,0.00,,,0.00,,2013-05-13 14:22:00,
2013-05-13 09:32:00,59.0,43.0,30.18,ESE,117,1.0,7.0,56,0.00,,,0.00,,2013-05-13 14:32:00,
2013-05-13 09:41:00,59.0,43.0,30.18,ESE,117,1.0,7.0,56,0.00,,,0.00,,2013-05-13 14:41:00,
2013-05-13 09:51:00,60.0,43.0,30.18,SE,127,2.0,8.0,53,0.00,,,0.00,,2013-05-13 14:51:00,
2013-05-13 10:01:00,61.0,43.0,30.17,SSE,154,4.0,10.0,52,0.00,,,0.00,,2013-05-13 15:01:00,
2013-05-13 10:11:00,61.0,43.0,30.17,SSE,154,4.0,10.0,52,0.00,,,0.00,,2013-05-13 15:11:00,
2013-05-13 10:21:00,63.0,45.0,30.17,SSE,148,1.0,10.0,51,0.00,,,0.00,,2013-05-13 15:21:00,
2013-05-13 10:31:00,63.0,44.0,30.17,ESE,110,3.0,9.0,49,0.00,,,0.00,,2013-05-13 15:31:00,
2013-05-13 10:42:00,63.0,44.0,30.17,ESE,110,3.0,9.0,49,0.00,,,0.00,,2013-05-13 15:42:00,
2013-05-13 10:53:00,65.0,45.0,30.16,ESE,122,1.0,10.0,49,0.00,,,0.00,,2013-05-13 15:53:00,
2013-05-13 11:03:00,65.0,45.0,30.16,South,183,1.0,9.0,49,0.00,,,0.00,,2013-05-13 16:03:00,
2013-05-13 11:11:00,65.0,45.0,30.16,South,183,1.0,9.0,49,0.00,,,0.00,,2013-05-13 16:11:00,
2013-05-13 11:21:00,66.0,46.0,30.16,SSE,161,3.0,9.0,49,0.00,,,0.00,,2013-05-13 16:21:00,
2013-05-13 11:33:00,66.0,45.0,30.15,SSE,154,2.0,13.0,47,0.00,,,0.00,,2013-05-13 16:33:00,
2013-05-13 11:42:00,67.0,47.0,30.15,SSE,155,1.0,8.0,48,0.00,,,0.00,,2013-05-13 16:42:00,
2013-05-13 11:52:00,67.0,47.0,30.15,SSE,155,1.0,8.0,48,0.00,,,0.00,,2013-05-13 16:52:00,
2013-05-13 12:02:00,68.0,46.0,30.15,ESE,107,3.0,9.0,46,0.00,,,0.00,,2013-05-13 17:02:00,
2013-05-13 12:12:00,68.0,46.0,30.15,ESE,107,3.0,9.0,46,0.00,,,0.00,,2013-05-13 17:12:00,
2013-05-13 12:21:00,69.0,48.0,30.14,South,174,1.0,6.0,48,0.00,,,0.00,,2013-05-13 17:21:00,
2013-05-13 12:32:00,69.0,47.0,30.14,SSE,155,3.0,9.0,46,0.00,,,0.00,,2013-05-13 17:32:00,
2013-05-13 12:42:00,69.0,47.0,30.14,SSE,155,3.0,9.0,46,0.00,,,0.00,,2013-05-13 17:42:00,
2013-05-13 12:54:00,70.0,49.0,30.13,ESE,121,2.0,9.0,47,0.00,,,0.00,,2013-05-13 17:54:00,
2013-05-13 13:03:00,71.0,50.0,30.13,SSE,153,0.0,7.0,47,0.00,,,0.00,,2013-05-13 18:03:00,
2013-05-13 13:12:00,71.0,50.0,30.13,SSE,153,0.0,7.0,47,0.00,,,0.00,,2013-05-13 18:12:00,
2013-05-13 13:23:00,71.0,49.0,30.12,SE,127,2.0,7.0,46,0.00,,,0.00,,2013-05-13 18:23:00,
2013-05-13 13:32:00,72.0,50.0,30.12,SSE,154,3.0,8.0,46,0.00,,,0.00,,2013-05-13 18:32:00,
2013-05-13 13:42:00,72.0,50.0,30.12,SE,132,1.0,8.0,46,0.00,,,0.00,,2013-05-13 18:42:00,
2013-05-13 13:51:00,72.0,50.0,30.12,SE,132,1.0,8.0,46,0.00,,,0.00,,2013-05-13 18:51:00,
2013-05-13 14:01:00,73.0,52.0,30.11,East,90,1.0,7.0,47,0.00,,,0.00,,2013-05-13 19:01:00,
2013-05-13 14:11:00,73.0,52.0,30.11,East,90,1.0,7.0,47,0.00,,,0.00,,2013-05-13 19:11:00,
2013-05-13 14:21:00,73.0,51.0,30.11,SSE,168,2.0,11.0,46,0.00,,,0.00,,2013-05-13 19:21:00,
2013-05-13 14:32:00,74.0,50.0,30.11,ESE,109,5.0,12.0,43,0.00,,,0.00,,2013-05-13 19:32:00,
2013-05-13 14:44:00,73.0,49.0,30.11,SE,144,4.0,10.0,43,0.00,,,0.00,,2013-05-13 19:44:00,
2013-05-13 14:53:00,73.0,49.0,30.11,SE,144,4.0,10.0,43,0.00,,,0.00,,2013-05-13 19:53:00,
2013-05-13 15:01:00,75.0,51.0,30.11,SE,132,3.0,10.0,43,0.00,,,0.00,,2013-05-13 20:01:00,
2013-05-13 15:11:00,75.0,51.0,30.11,SE,132,3.0,10.0,43,0.00,,,0.00,,2013-05-13 20:11:00,
2013-05-13 15:23:00,75.0,52.0,30.10,SE,137,2.0,7.0,44,0.00,,,0.00,,2013-05-13 20:23:00,
2013-05-13 15:33:00,76.0,52.0,30.09,East,95,3.0,9.0,44,0.00,,,0.00,,2013-05-13 20:33:00,
2013-05-13 15:44:00,76.0,52.0,30.09,East,95,3.0,9.0,44,0.00,,,0.00,,2013-05-13 20:44:00,
2013-05-13 15:53:00,75.0,53.0,30.09,South,171,1.0,14.0,46,0.00,,,0.00,,2013-05-13 20:53:00,
2013-05-13 16:03:00,75.0,53.0,30.08,South,180,1.0,7.0,46,0.00,,,0.00,,2013-05-13 21:03:00,
2013-05-13 16:14:00,75.0,53.0,30.08,South,180,1.0,7.0,46,0.00,,,0.00,,2013-05-13 21:14:00,
2013-05-13 16:23:00,76.0,53.0,30.08,SSE,159,3.0,10.0,45,0.00,,,0.00,,2013-05-13 21:23:00,
2013-05-13 16:33:00,76.0,53.0,30.07,ESE,109,3.0,10.0,45,0.00,,,0.00,,2013-05-13 21:33:00,
2013-05-13 16:43:00,76.0,53.0,30.07,ESE,109,3.0,10.0,45,0.00,,,0.00,,2013-05-13 21:43:00,
2013-05-13 16:53:00,77.0,53.0,30.07,SE,138,1.0,7.0,43,0.00,,,0.00,,2013-05-13 21:53:00,
2013-05-13 17:02:00,77.0,53.0,30.07,SE,138,0.0,8.0,44,0.00,,,0.00,,2013-05-13 22:02:00,
2013-05-13 17:12:00,77.0,53.0,30.07,SE,138,0.0,8.0,44,0.00,,,0.00,,2013-05-13 22:12:00,
2013-05-13 17:23:00,77.0,53.0,30.06,SE,136,1.0,10.0,43,0.00,,,0.00,,2013-05-13 22:23:00,
2013-05-13 17:32:00,77.0,54.0,30.05,SE,141,0.0,8.0,45,0.00,,,0.00,,2013-05-13 22:32:00,
2013-05-13 17:42:00,77.0,53.0,30.05,SSE,152,1.0,10.0,44,0.00,,,0.00,,2013-05-13 22:42:00,
2013-05-13 17:52:00,77.0,53.0,30.05,SSE,152,1.0,10.0,44,0.00,,,0.00,,2013-05-13 22:52:00,
2013-05-13 18:02:00,77.0,54.0,30.04,West,277,1.0,7.0,45,0.00,,,0.00,,2013-05-13 23:02:00,
2013-05-13 18:12:00,77.0,54.0,30.04,West,277,1.0,7.0,45,0.00,,,0.00,,2013-05-13 23:12:00,
2013-05-13 18:23:00,76.0,54.0,30.04,SSE,161,1.0,10.0,46,0.00,,,0.00,,2013-05-13 23:23:00,
2013-05-13 18:33:00,76.0,53.0,30.03,South,178,0.0,7.0,45,0.00,,,0.00,,2013-05-13 23:33:00,
2013-05-13 18:42:00,76.0,53.0,30.03,South,178,0.0,7.0,45,0.00,,,0.00,,2013-05-13 23:42:00,
2013-05-13 18:53:00,75.0,53.0,30.03,South,181,1.0,7.0,47,0.00,,,0.00,,2013-05-13 23:53:00,
2013-05-13 19:02:00,75.0,55.0,30.03,South,182,1.0,11.0,49,0.00,,,0.00,,2013-05-14 00:02:00,
2013-05-13 19:12:00,75.0,55.0,30.03,South,182,1.0,11.0,49,0.00,,,0.00,,2013-05-14 00:12:00,
2013-05-13 19:22:00,74.0,54.0,30.02,SE,130,0.0,8.0,50,0.00,,,0.00,,2013-05-14 00:22:00,
2013-05-13 19:31:00,73.0,54.0,30.02,SSE,162,0.0,7.0,52,0.00,,,0.00,,2013-05-14 00:31:00,
2013-05-13 19:41:00,73.0,54.0,30.02,SSE,162,0.0,7.0,52,0.00,,,0.00,,2013-05-14 00:41:00,
2013-05-13 19:51:00,73.0,54.0,30.02,South,181,0.0,5.0,52,0.00,,,0.00,,2013-05-14 00:51:00,
2013-05-13 20:01:00,72.0,54.0,30.01,SSW,200,0.0,5.0,54,0.00,,,0.00,,2013-05-14 01:01:00,
2013-05-13 20:11:00,72.0,54.0,30.01,SSW,200,0.0,5.0,54,0.00,,,0.00,,2013-05-14 01:11:00,
2013-05-13 20:21:00,71.0,54.0,30.01,South,171,0.0,5.0,56,0.00,,,0.00,,2013-05-14 01:21:00,
2013-05-13 20:32:00,70.0,54.0,30.01,SSW,192,0.0,3.0,57,0.00,,,0.00,,2013-05-14 01:32:00,
2013-05-13 20:43:00,70.0,54.0,30.01,SSW,192,0.0,3.0,57,0.00,,,0.00,,2013-05-14 01:43:00,
2013-05-13 20:52:00,69.0,54.0,30.01,South,189,0.0,3.0,59,0.00,,,0.00,,2013-05-14 01:52:00,
2013-05-13 21:02:00,68.0,54.0,30.01,South,183,0.0,4.0,61,0.00,,,0.00,,2013-05-14 02:02:00,
2013-05-13 21:11:00,68.0,55.0,30.01,SE,137,0.0,2.0,63,0.00,,,0.00,,2013-05-14 02:11:00,
2013-05-13 21:22:00,68.0,55.0,30.01,SE,137,0.0,2.0,63,0.00,,,0.00,,2013-05-14 02:22:00,
2013-05-13 21:32:00,67.0,54.0,30.01,ESE,117,0.0,4.0,64,0.00,,,0.00,,2013-05-14 02:32:00,
2013-05-13 21:42:00,67.0,54.0,30.01,ESE,117,0.0,4.0,64,0.00,,,0.00,,2013-05-14 02:42:00,
2013-05-13 21:52:00,67.0,54.0,30.01,SSE,168,0.0,5.0,64,0.00,,,0.00,,2013-05-14 02:52:00,
2013-05-13 22:01:00,66.0,54.0,30.01,South,173,0.0,6.0,66,0.00,,,0.00,,2013-05-14 03:01:00,
2013-05-13 22:11:00,66.0,54.0,30.01,South,173,0.0,6.0,66,0.00,,,0.00,,2013-05-14 03:11:00,
2013-05-13 22:21:00,66.0,55.0,30.01,South,173,0.0,4.0,67,0.00,,,0.00,,2013-05-14 03:21:00,
2013-05-13 22:33:00,65.0,54.0,30.01,SSW,200,0.0,3.0,68,0.00,,,0.00,,2013-05-14 03:33:00,
2013-05-13 22:42:00,65.0,54.0,30.01,SSW,200,0.0,3.0,68,0.00,,,0.00,,2013-05-14 03:42:00,
2013-05-13 22:52:00,65.0,55.0,30.01,SSW,194,0.0,4.0,69,0.00,,,0.00,,2013-05-14 03:52:00,
2013-05-13 23:02:00,64.0,54.0,30.01,SSE,163,0.0,5.0,70,0.00,,,0.00,,2013-05-14 04:02:00,
2013-05-13 23:13:00,64.0,54.0,30.01,SSE,163,0.0,5.0,70,0.00,,,0.00,,2013-05-14 04:13:00,
2013-05-13 23:23:00,65.0,55.0,29.99,SSE,152,0.0,5.0,70,0.00,,,0.00,,2013-05-14 04:23:00,
2013-05-13 23:32:00,65.0,55.0,29.99,SSW,196,1.0,6.0,70,0.00,,,0.00,,2013-05-14 04:32:00,
2013-05-13 23:43:00,65.0,55.0,29.99,SSW,196,1.0,6.0,70,0.00,,,0.00,,2013-05-14 04:43:00,
2013-05-13 23:52:00,65.0,55.0,29.99,SE,132,0.0,5.0,70,0.00,,,0.00,,2013-05-14 04:52:00,